YAOGAN 20C

导读 | 豆包AI

YAOGAN 20C(遥感二十号C星)是中国于2014年8月9日发射的遥感卫星。作为我国遥感卫星系列的重要组成部分,它主要承担地球观测任务,可获取空间遥感信息,服务于国土资源勘察、农业估产、灾害监测、地理测绘等多个领域,同时也为科学研究提供数据支撑,助力我国空间对地观测体系的完善,推动遥感应用技术持续发展。

基本信息
目录编号:
40111
目录名称:
YAOGAN 20C
国际标识:
2014-047C
轨道中心:
EARTH
卫星名称:
YAOGAN 20C
卫星全名:
--
卫星状态:
在轨 (已飞行4257 天)
发射日期:
2014-08-09 UTC
国别 :
中国 (CN)
星等 :
--
轨道信息
数据来源 国际轨道数据 AOE轨道数据
星历时间 2026-04-05T20:21:26+0800
6小时前
查看轨道信息
2026-04-03T04:00:00+0800
2天前
查看轨道信息
半长轴 7467.209km 7467.211km
偏心率 0.0383835 0.0383823
轨道倾角 63.379° 63.380°
近地点辐角 14.678° 14.646°
升交点赤经 207.074° 213.987°
平近点角 346.503° 318.150°
近地点 802.454km 802.465km
远地点 1375.69km 1375.683km
周期 107.028分钟 107.028分钟
每日圈数 13.454432 13.454427
详细信息
使用方式:
暂无
2D轨道图
3D轨道图
轨道高度分析图
轨道倾角分析图
轨道综合分析图
查看轨道综合分析图